This demonstration page uses our WeatherBlox Daily Observations layout. Learn more.

Left ArrowRight Arrow

39.08367, -84.50855

Hourly Observations for January 25, 2015

Temp ( °F °C ) Dew Point ( °F °C ) Humidity (%) Winds ( mph kmh ) Pressure ( in mb ) Visibility ( mi km ) Precip ( " mm )
12:53 am 00:53 Clear with Mist and Fog 28 -2.2 27 -2.8 96 96 Calm 29.81 1009 5 8.0467 0 0
1:53 am 01:53 Clear with Mist and Fog 29 -1.7 27 -2.8 92 92 Calm 29.81 1009 5 8.0467 0 0
2:53 am 02:53 Clear with Mist and Fog 31 -0.6 29 -1.7 92 92 Calm 29.8 1009 6 9.65604 0 0
3:53 am 03:53 Clear with Mist and Fog 30 -1.1 28 -2.2 92 92 W 3 6 29.8 1009 6 9.65604 0 0
4:53 am 04:53 Clear with Mist and Fog 30 -1.1 28 -2.2 92 92 WSW 5 7 29.78 1009 5 8.0467 0 0
5:53 am 05:53 Mostly Clear with Mist and Fog 30 -1.1 29 -1.7 96 96 Calm 29.76 1008 6 9.65604 0 0
6:53 am 06:53 Mostly Cloudy with Mist and Fog 31 -0.6 30 -1.1 96 96 SW 3 6 29.76 1008 6 9.65604 0 0
7:53 am 07:53 Mostly Cloudy with Mist and Fog 32 0 30 -1.1 92 92 Calm 29.76 1008 6 9.65604 0 0
8:53 am 08:53 Cloudy with Mist and Fog 32 0 31 -0.6 96 96 Calm 29.75 1008 5 8.0467 0 0
9:53 am 09:53 Cloudy with Light Rain 36 2.2 32 0 86 86 Calm 29.76 1008 7 11.26538 0 0.0254
10:53 am 10:53 Cloudy 37 2.8 33 0.6 86 86 ENE 3 6 29.77 1008 8 12.87472 0 0.0254
11:53 am 11:53 Cloudy 40 4.4 32 0 73 73 VRB 3 6 29.75 1007 10 16.0934 0 0
12:53 pm 12:53 Cloudy with Light Rain 41 5 33 0.6 73 73 Calm 29.73 1007 10 16.0934 0 0.0254
1:53 pm 13:53 Cloudy with Light Rain 41 5 34 1.1 76 76 SSE 5 7 29.71 1006 10 16.0934 0 0.0254
2:53 pm 14:53 Cloudy with Light Rain 41 5 34 1.1 76 76 VRB 3 6 29.69 1006 10 16.0934 0 0.0254
3:53 pm 15:53 Cloudy with Light Rain 40 4.4 36 2.2 86 86 NE 3 6 29.68 1005 6 9.65604 0.03 0.762
4:53 pm 16:53 Cloudy with Light Rain 40 4.4 37 2.8 89 89 Calm 29.69 1005 5 8.0467 0.03 0.762
5:53 pm 17:53 Cloudy with Light Rain 39 3.9 38 3.3 96 96 NNE 6 9 29.69 1006 5 8.0467 0.06 1.524
6:43 pm 18:43 Cloudy with Light Rain 38 3.3 38 3.3 100 100 NNE 3 6 29.74 1007 4 6.43736 0.04 1.016
6:53 pm 18:53 Cloudy with Rain 38 3.3 38 3.3 100 100 NNE 5 7 29.72 1006 4 6.43736 0.05 1.27
7:53 pm 19:53 Cloudy with Light Rain 38 3.3 38 3.3 100 100 NNE 6 9 29.72 1007 4 6.43736 0.08 2.032
8:39 pm 20:39 Cloudy with Rain 38 3.3 38 3.3 100 100 NE 7 11 29.74 1007 3 4.82802 0.06 1.524
8:53 pm 20:53 Cloudy with Light Rain 38 3.3 38 3.3 100 100 NE 6 9 29.72 1007 4 6.43736 0.07 1.778
9:53 pm 21:53 Cloudy with Light Rain 38 3.3 37 2.8 97 97 NE 8 13 29.72 1006 4 6.43736 0.04 1.016
10:15 pm 22:15 Cloudy with Light Rain 38 3.3 37 2.8 97 97 NNE 7 11 29.74 1007 5 8.0467 0.02 0.508
10:53 pm 22:53 Cloudy with Light Rain 37 2.8 36 2.2 96 96 N 13 20 29.72 1006 5 8.0467 0.04 1.016
11:45 pm 23:45 Cloudy with Light Snow 32 0 32 0 100 100 NNE 10 17 29.77 1008 2 3.21868 0.03 0.762
11:47 pm 23:47 Cloudy with Light Snow 32 0 32 0 100 100 NNE 12 19 29.77 1008 1.75 2.816345 0.03 0.762
11:53 pm 23:53 Cloudy with Light Snow 32 0 32 0 100 100 NNE 13 20 29.73 1007 1.75 2.816345 0.03 0.762

Powered by AerisWeather